Temp
82 93 94 89 74 75 68 69 77 72 73 78 79 77 76 77 72 65 83 85 86 84 84 79 74 76 76 75 75 75 76 76 76 76 76 76 76 76 76 76 76 77 77 77 76 75 74 73 73
92 91 90 87 71 66 69 75 71 76 77 78 77 76 76 72 78 76 79 84 86 85 85 83 73 75 75 75 75 76 76 76 76 76 76 76 76 76 76 76 76 76 76 76 75 75 73 73 73
88 90 83 79 73 67 68 74 77 76 77 77 75 77 77 73 79 80 85 85 86 85 84 81 73 75 75 75 75 75 76 76 76 76 75 75 75 75 75 75 76 75 75 75 74 73 73 72 72
89 89 86 73 69 73 73 77 79 75 75 76 77 74 77 80 82 85 85 86 86 85 85 74 74 75 75 75 75 75 76 76 76 75 75 75 75 75 74 74 75 75 74 74 73 73 72 72 72
89 86 74 70 70 73 76 79 79 75 77 77 77 74 74 78 82 83 84 86 85 85 85 79 73 74 74 75 75 75 76 76 75 75 75 74 74 74 74 74 74 73 73 73 72 72 71 71 70
81 83 70 67 71 73 76 79 79 78 78 77 75 76 75 82 80 82 85 85 87 84 83 81 71 71 72 74 74 75 75 75 75 74 74 74 74 74 74 73 73 73 72 72 71 71 70 69 69
76 75 71 71 71 71 75 79 77 77 77 77 80 74 77 78 82 83 84 87 87 85 82 79 80 75 68 70 72 73 73 74 74 74 73 73 72 72 72 72 72 72 72 71 70 69 69 68 68
80 79 71 72 71 70 77 77 80 79 77 79 81 76 75 79 82 83 84 85 85 83 81 78 79 79 79 77 68 69 71 71 71 71 69 68 68 69 69 68 70 71 70 70 69 68 67 67 67
81 73 69 71 70 74 77 75 77 80 78 77 78 78 78 83 80 73 76 78 82 81 80 80 79 80 79 78 74 67 67 68 68 67 65 66 74 74 73 67 68 69 69 68 68 66 64 64 64
76 71 72 77 79 75 76 77 78 74 76 76 77 78 77 78 77 71 69 71 70 72 78 82 81 80 80 78 76 78 77 76 76 75 73 76 76 76 73 65 64 66 66 66 66 66 65 67 70
76 71 76 75 76 76 76 75 78 74 73 79 78 80 75 75 76 74 72 74 73 72 73 75 75 79 79 78 78 78 78 78 76 75 76 75 75 72 72 69 68 66 64 67 67 68 70 69 69
71 73 74 73 71 71 72 77 73 75 79 81 85 85 78 75 75 76 75 75 77 76 76 74 74 76 78 79 78 79 77 77 76 75 75 75 71 71 72 70 67 67 68 67 68 67 66 66 66
71 72 71 71 70 71 71 72 74 76 82 81 78 76 79 77 78 79 80 79 79 78 77 71 73 77 78 74 72 76 79 78 78 77 76 75 71 70 69 67 64 64 64 65 67 66 65 64 64
72 71 71 71 71 71 67 73 69 77 82 82 78 77 79 79 79 79 79 79 79 79 78 75 71 76 79 78 77 73 75 79 78 77 76 75 73 68 66 63 64 63 63 64 66 65 64 63 62
70 66 70 71 71 70 69 66 68 78 75 76 79 78 80 80 81 79 80 78 80 79 78 76 73 72 75 77 78 78 77 74 76 78 77 76 73 69 67 63 62 62 61 60 60 60 62 61 62
67 67 63 71 68 68 67 63 73 78 77 74 78 80 80 80 80 81 81 79 80 79 77 77 75 74 74 75 76 77 78 79 77 77 78 76 74 68 64 62 60 59 59 60 54 54 56 57 59
65 62 64 65 68 67 65 66 75 72 72 73 77 80 80 81 81 81 81 80 79 79 77 76 74 72 72 73 75 75 76 74 75 76 76 75 74 68 65 63 59 58 59 55 54 53 56 55 56
62 60 63 63 65 63 64 63 72 76 72 72 77 79 80 79 80 83 81 79 80 79 78 76 73 71 71 72 71 73 73 74 73 75 74 74 71 68 64 62 58 57 56 56 53 53 55 54 54
65 64 62 67 65 60 64 65 70 75 76 75 76 76 78 80 84 84 83 80 77 76 75 75 72 71 71 69 67 67 67 70 68 68 71 72 70 67 63 61 58 57 56 55 53 53 51 52 54
62 60 61 67 63 58 63 62 69 72 73 75 76 78 79 81 83 83 82 79 75 74 73 73 72 71 70 70 69 69 68 69 68 63 62 67 65 64 61 59 57 57 55 54 52 52 49 52 53
60 59 61 60 59 62 59 60 67 75 74 74 76 78 79 80 81 83 82 78 74 71 71 71 71 71 70 70 70 68 68 65 61 59 58 58 59 58 57 58 57 55 54 51 51 50 50 48 51
56 64 61 57 55 53 60 51 64 71 73 75 75 76 78 79 80 80 81 80 74 72 72 71 71 70 70 69 68 65 61 58 60 60 58 55 54 54 55 55 54 54 54 50 49 51 52 50 48
58 59 58 56 54 53 55 49 60 70 65 71 75 77 80 81 80 79 78 76 77 72 70 70 70 69 69 68 67 65 61 63 65 62 56 55 52 51 51 52 53 52 53 52 51 50 52 52 51
58 56 56 55 53 44 55 53 57 66 70 72 75 77 78 76 74 74 74 73 72 71 68 67 67 67 68 66 66 65 62 63 63 58 56 53 51 49 49 49 50 51 50 50 49 49 50 50 52
58 55 46 44 41 42 50 49 57 67 71 72 72 74 77 73 72 74 73 69 67 66 64 64 65 65 66 66 65 64 63 64 63 59 57 53 50 48 47 47 48 49 50 49 49 47 48 48 50
52 56 47 38 41 47 43 44 58 69 72 72 71 72 72 72 71 69 72 72 68 63 62 62 62 63 65 64 63 64 63 64 64 61 60 57 54 53 51 48 49 51 51 51 50 48 48 48 48
52 47 59 48 36 40 51 59 68 63 63 67 69 70 71 72 72 71 72 71 68 64 62 62 61 61 62 62 62 62 62 62 62 61 61 60 59 58 56 53 51 51 49 49 49 47 46 46 48
54 60 45 47 34 34 47 51 55 62 66 68 67 69 70 69 67 67 70 67 65 64 62 61 62 61 60 61 60 60 61 61 61 60 58 58 58 56 54 52 49 46 46 46 45 43 44 44 46
48 48 49 51 47 40 39 49 68 66 68 68 67 66 67 67 67 66 66 64 63 61 60 60 59 59 59 59 58 57 58 59 59 57 57 56 56 54 50 48 46 44 43 44 44 41 42 42 43
56 53 52 43 39 45 43 47 62 67 68 64 66 66 68 67 67 67 66 65 63 60 60 58 59 58 58 58 56 55 57 57 56 56 56 55 53 51 49 47 44 44 43 42 42 41 41 41 40
MSLP
1012.58 1011.76 1011.48 1010.72 1009.83 1008.95 1008.67 1009.71 1010.31 1011.00 1011.55 1012.22 1012.58 1012.65 1012.69 1012.99 1013.33 1014.35 1015.47 1015.78 1016.01 1016.91 1017.78 1018.77 1019.16 1019.45 1019.80 1019.90 1020.05 1020.22 1020.31 1020.43 1020.35 1020.53 1020.64 1020.66 1020.63 1020.68 1020.75 1020.73 1020.67 1020.54 1020.56 1020.80 1021.02 1021.27 1021.51 1021.59 1021.63
1012.04 1011.71 1011.14 1009.52 1008.85 1008.16 1008.41 1009.57 1010.52 1010.99 1011.93 1012.68 1013.19 1013.25 1012.96 1013.43 1014.26 1015.02 1015.47 1016.09 1016.37 1016.94 1017.55 1018.33 1019.25 1019.53 1019.84 1019.96 1020.11 1020.30 1020.43 1020.58 1020.67 1020.79 1020.87 1020.93 1021.04 1021.01 1021.10 1021.06 1021.00 1021.01 1021.06 1021.30 1021.56 1021.81 1021.98 1022.05 1022.05
1012.37 1011.79 1010.20 1008.93 1008.70 1008.31 1008.66 1009.83 1010.35 1011.77 1012.51 1012.72 1013.05 1013.64 1013.47 1013.92 1014.60 1015.03 1015.30 1016.08 1016.45 1017.01 1017.62 1018.32 1019.21 1019.56 1019.89 1020.09 1020.23 1020.47 1020.64 1020.83 1021.01 1021.12 1021.23 1021.30 1021.46 1021.49 1021.47 1021.52 1021.48 1021.58 1021.71 1021.86 1022.08 1022.37 1022.38 1022.51 1022.52
1011.71 1010.85 1010.09 1009.11 1008.47 1009.00 1009.63 1010.04 1010.68 1011.96 1012.77 1013.15 1013.13 1013.20 1014.35 1014.94 1014.65 1015.07 1015.95 1016.06 1016.49 1017.10 1017.59 1018.84 1019.33 1019.77 1019.92 1020.16 1020.42 1020.73 1020.88 1021.12 1021.27 1021.39 1021.54 1021.67 1021.77 1021.85 1021.93 1021.96 1022.01 1022.15 1022.30 1022.58 1022.70 1022.83 1022.95 1022.97 1023.15
1011.54 1010.20 1009.14 1008.99 1009.00 1009.70 1010.28 1010.56 1011.21 1011.75 1012.12 1012.66 1013.21 1013.22 1014.06 1015.30 1015.66 1015.88 1016.09 1016.30 1016.46 1017.05 1017.62 1018.90 1019.50 1019.83 1020.03 1020.23 1020.56 1020.83 1021.01 1021.25 1021.45 1021.65 1021.77 1021.97 1022.16 1022.23 1022.37 1022.43 1022.53 1022.83 1022.95 1023.07 1023.31 1023.31 1023.40 1023.52 1023.68
1010.78 1010.05 1008.97 1008.58 1009.05 1009.98 1010.56 1011.11 1011.39 1011.69 1012.17 1012.76 1013.21 1013.23 1014.13 1015.10 1015.72 1016.05 1016.17 1016.30 1016.37 1017.22 1017.87 1018.79 1019.58 1019.84 1020.16 1020.43 1020.70 1020.99 1021.30 1021.42 1021.60 1021.83 1022.03 1022.26 1022.37 1022.49 1022.70 1022.79 1023.01 1023.30 1023.51 1023.68 1023.84 1023.95 1023.95 1024.15 1024.19
1010.99 1009.85 1009.00 1009.05 1009.35 1009.99 1010.49 1011.39 1011.52 1011.71 1012.12 1012.51 1012.98 1012.87 1014.02 1015.08 1015.50 1016.05 1016.29 1016.35 1016.54 1017.20 1018.06 1018.79 1019.38 1020.03 1020.43 1020.60 1020.85 1021.05 1021.31 1021.53 1021.77 1022.04 1022.29 1022.48 1022.65 1022.81 1022.97 1023.12 1023.41 1023.72 1023.98 1024.16 1024.38 1024.51 1024.55 1024.70 1024.73
1011.28 1010.10 1009.33 1009.38 1009.35 1009.88 1010.83 1011.50 1011.71 1011.80 1012.16 1013.12 1013.25 1012.73 1013.23 1014.51 1015.55 1016.13 1016.28 1016.44 1016.86 1017.27 1018.06 1018.68 1019.08 1019.67 1020.09 1020.64 1020.99 1021.12 1021.39 1021.67 1021.96 1022.20 1022.56 1022.83 1023.05 1023.23 1023.42 1023.54 1023.79 1024.03 1024.32 1024.58 1024.80 1024.99 1025.17 1025.21 1025.29
1011.83 1010.40 1009.38 1009.33 1009.83 1010.05 1011.15 1011.49 1012.26 1012.57 1012.63 1013.12 1013.39 1013.55 1014.21 1014.59 1015.80 1016.79 1016.76 1016.84 1016.89 1017.37 1018.00 1018.43 1018.84 1019.18 1019.58 1020.14 1020.79 1021.33 1021.59 1021.83 1022.13 1022.51 1022.80 1023.04 1023.10 1023.32 1023.42 1023.95 1024.28 1024.46 1024.70 1025.02 1025.32 1025.51 1025.66 1025.82 1025.85
1011.50 1010.45 1009.70 1010.06 1010.25 1010.57 1011.23 1011.45 1011.88 1012.59 1012.42 1012.68 1013.17 1014.07 1014.86 1015.28 1015.83 1016.63 1017.02 1017.04 1017.50 1017.74 1017.72 1017.80 1018.31 1018.78 1019.21 1019.79 1020.49 1020.76 1021.24 1021.58 1021.82 1022.20 1022.66 1022.40 1022.78 1023.04 1023.73 1024.53 1024.87 1025.04 1025.15 1025.38 1025.67 1025.81 1025.89 1025.63 1025.77
1011.30 1010.74 1010.48 1011.04 1011.36 1011.71 1011.50 1011.75 1012.04 1012.17 1011.77 1011.85 1012.11 1013.02 1014.56 1015.12 1015.49 1015.92 1016.58 1016.76 1017.20 1017.99 1018.24 1018.42 1018.68 1018.75 1019.11 1019.51 1019.96 1020.28 1020.69 1020.98 1021.35 1021.73 1022.14 1022.25 1022.65 1023.34 1023.92 1024.75 1025.11 1025.42 1025.51 1025.58 1025.74 1025.74 1025.74 1025.92 1026.05
1011.68 1011.55 1011.63 1011.88 1012.37 1012.52 1012.28 1011.87 1011.87 1011.92 1011.43 1011.88 1011.74 1012.16 1013.64 1014.44 1014.73 1015.01 1015.60 1016.18 1016.58 1017.19 1017.83 1018.55 1018.85 1018.89 1018.93 1019.22 1019.58 1019.78 1020.18 1020.62 1020.96 1021.45 1021.76 1022.03 1022.74 1023.14 1023.44 1024.15 1024.91 1025.21 1025.27 1025.39 1025.52 1025.91 1026.27 1026.57 1026.75
1011.96 1011.97 1012.43 1012.58 1012.98 1012.92 1013.13 1012.38 1011.94 1011.27 1011.43 1011.98 1012.50 1012.92 1013.04 1013.60 1014.00 1014.49 1014.87 1015.59 1015.97 1016.33 1017.17 1018.32 1018.64 1018.40 1018.71 1019.48 1019.68 1019.78 1019.63 1020.02 1020.43 1020.76 1021.32 1021.75 1022.37 1022.92 1023.38 1024.10 1024.80 1025.25 1025.54 1025.62 1025.76 1026.12 1026.44 1026.98 1027.36
1012.28 1012.37 1012.53 1012.86 1013.02 1013.09 1013.30 1012.44 1012.37 1011.05 1011.13 1011.27 1012.03 1012.37 1012.63 1012.96 1013.26 1013.78 1014.24 1014.56 1015.16 1015.73 1016.29 1017.60 1018.42 1018.30 1018.32 1018.63 1019.09 1019.72 1019.83 1019.75 1019.95 1020.37 1020.77 1021.25 1021.85 1022.54 1023.43 1024.18 1024.57 1024.97 1025.44 1025.77 1025.95 1026.23 1026.67 1027.09 1027.79
1012.83 1012.47 1012.56 1012.66 1012.88 1013.12 1013.36 1012.39 1011.10 1010.89 1011.40 1011.27 1011.32 1011.72 1011.84 1012.13 1012.63 1012.83 1013.36 1013.93 1014.43 1015.11 1015.95 1016.64 1017.68 1018.39 1018.27 1018.47 1018.66 1018.85 1019.25 1019.70 1019.75 1019.86 1020.36 1020.71 1021.36 1022.16 1022.75 1023.70 1024.27 1024.84 1025.33 1025.90 1026.27 1026.68 1027.07 1027.10 1027.84
1012.55 1012.45 1011.91 1011.89 1012.89 1013.39 1013.41 1011.27 1010.58 1010.29 1010.72 1010.89 1010.77 1010.70 1010.95 1011.31 1011.86 1012.34 1012.74 1013.37 1013.93 1014.60 1015.34 1016.11 1016.90 1017.44 1017.90 1018.08 1018.31 1018.54 1018.67 1018.80 1019.21 1019.42 1019.81 1020.26 1020.84 1021.79 1022.54 1023.23 1023.99 1024.71 1025.33 1025.62 1026.64 1027.23 1027.43 1027.18 1027.87
1012.15 1011.19 1011.36 1011.92 1012.77 1012.99 1013.03 1011.07 1010.31 1010.80 1010.81 1010.45 1010.15 1009.97 1010.02 1010.32 1010.89 1011.53 1012.12 1012.65 1013.24 1013.80 1014.68 1015.42 1016.28 1016.95 1017.41 1017.74 1017.87 1018.17 1018.36 1018.55 1018.80 1018.94 1019.29 1019.91 1020.27 1021.19 1021.99 1022.72 1023.54 1024.28 1024.90 1025.67 1026.27 1027.06 1027.37 1026.96 1027.89
1010.96 1011.35 1011.36 1011.68 1012.62 1013.07 1012.45 1011.34 1010.37 1010.17 1010.34 1010.04 1009.58 1009.25 1009.31 1009.57 1009.71 1010.28 1011.08 1011.94 1012.62 1013.24 1014.01 1014.86 1015.71 1016.48 1016.92 1017.38 1017.77 1017.93 1018.09 1018.24 1018.59 1018.47 1018.79 1019.39 1020.03 1020.59 1021.42 1022.31 1023.20 1023.83 1024.71 1025.38 1026.36 1026.88 1027.37 1027.18 1027.42
1011.85 1011.48 1011.24 1011.47 1012.78 1013.03 1011.91 1010.80 1009.95 1009.38 1009.10 1008.87 1008.58 1008.53 1008.40 1008.21 1008.60 1009.33 1009.98 1011.08 1012.13 1012.91 1013.48 1014.04 1014.90 1015.68 1016.35 1016.81 1017.18 1017.50 1017.65 1017.99 1018.53 1018.79 1018.63 1019.00 1019.63 1020.09 1020.79 1021.72 1022.62 1023.41 1024.00 1024.59 1025.46 1026.89 1027.45 1027.69 1027.45
1012.52 1012.21 1011.74 1011.77 1012.92 1013.34 1011.85 1010.06 1009.64 1008.86 1007.98 1007.96 1007.59 1007.35 1007.29 1007.29 1007.59 1008.17 1009.19 1010.14 1011.22 1011.95 1012.65 1013.46 1014.05 1014.85 1015.49 1016.03 1016.60 1017.14 1017.53 1017.68 1018.11 1018.95 1019.06 1019.15 1019.56 1019.77 1020.27 1021.07 1021.89 1022.57 1023.55 1024.37 1025.33 1025.82 1026.92 1027.48 1027.38
1012.83 1012.56 1012.23 1012.62 1013.28 1012.76 1012.26 1009.56 1008.08 1006.93 1007.09 1007.15 1006.79 1006.65 1006.53 1006.46 1006.81 1007.30 1008.04 1009.35 1010.58 1011.32 1011.86 1012.39 1013.01 1013.78 1014.59 1015.28 1015.91 1016.67 1017.12 1017.56 1018.04 1018.52 1018.82 1018.97 1019.31 1019.54 1019.95 1020.59 1021.30 1021.95 1022.72 1023.48 1024.28 1025.11 1025.41 1026.18 1027.02
1012.88 1012.87 1013.13 1013.47 1013.63 1012.58 1012.48 1009.40 1007.37 1006.60 1005.98 1005.97 1005.80 1005.84 1005.65 1006.03 1006.61 1007.14 1007.52 1008.22 1009.55 1010.48 1011.36 1012.08 1012.72 1013.30 1013.90 1014.65 1015.11 1015.54 1015.96 1016.56 1016.92 1017.59 1018.21 1018.75 1019.16 1019.32 1019.67 1020.17 1020.71 1021.32 1021.89 1022.94 1023.51 1024.39 1024.53 1025.09 1025.59
1013.61 1013.77 1013.94 1014.02 1013.79 1013.24 1012.28 1011.23 1007.08 1006.05 1005.63 1005.27 1004.97 1004.96 1005.16 1005.49 1006.10 1006.79 1007.55 1008.23 1008.77 1010.05 1010.98 1011.72 1012.44 1013.08 1013.68 1014.12 1014.48 1014.89 1015.49 1015.85 1016.14 1016.95 1017.77 1018.30 1018.89 1019.08 1019.46 1019.82 1020.22 1020.95 1021.35 1022.07 1022.69 1023.60 1024.04 1024.52 1024.39
1014.42 1014.40 1014.48 1014.44 1014.19 1012.56 1011.30 1010.41 1006.40 1005.29 1004.66 1004.78 1004.87 1004.94 1005.29 1005.89 1006.62 1007.29 1007.90 1008.38 1009.00 1009.85 1010.70 1011.32 1011.85 1012.29 1013.12 1013.79 1014.33 1014.47 1014.88 1015.20 1015.53 1016.43 1017.15 1017.66 1018.31 1018.89 1019.26 1019.71 1020.08 1020.39 1021.04 1021.64 1022.16 1022.88 1023.57 1023.75 1023.73
1014.54 1014.25 1013.91 1013.87 1013.83 1011.39 1011.03 1010.12 1006.28 1005.73 1005.19 1005.31 1005.38 1005.11 1005.51 1006.36 1006.92 1007.19 1007.74 1008.49 1009.19 1009.81 1010.56 1011.05 1011.58 1011.96 1012.53 1013.24 1013.85 1014.28 1014.67 1014.85 1014.94 1015.65 1016.35 1017.00 1017.73 1018.39 1018.95 1019.41 1019.88 1020.20 1020.62 1021.35 1021.71 1022.56 1023.12 1023.28 1023.61
1014.03 1013.49 1012.88 1012.46 1012.71 1011.45 1011.48 1008.47 1005.56 1005.44 1005.37 1005.42 1005.56 1005.67 1005.82 1006.32 1006.84 1007.31 1007.55 1008.12 1008.95 1009.90 1010.64 1011.03 1011.32 1011.69 1012.12 1012.69 1013.15 1013.60 1014.07 1014.21 1014.31 1014.90 1015.23 1015.89 1016.53 1017.08 1017.80 1018.63 1019.14 1019.67 1020.18 1020.46 1021.29 1021.84 1022.58 1023.11 1023.11
1013.94 1013.51 1012.85 1013.05 1013.58 1012.76 1009.89 1006.62 1005.48 1005.66 1005.67 1005.48 1005.49 1005.74 1006.03 1006.24 1006.49 1006.95 1007.45 1008.25 1009.04 1009.74 1010.50 1011.01 1011.36 1011.60 1011.67 1012.11 1012.68 1012.98 1013.44 1013.75 1013.91 1014.48 1014.81 1015.15 1015.62 1016.06 1016.72 1017.52 1018.37 1018.94 1019.69 1020.03 1020.57 1021.34 1021.90 1022.71 1022.79
1013.50 1012.93 1013.47 1013.31 1012.80 1011.68 1008.48 1006.78 1004.92 1005.05 1005.11 1005.33 1005.68 1005.70 1005.99 1006.59 1006.91 1007.13 1007.37 1008.34 1009.22 1009.83 1010.38 1011.00 1011.09 1011.34 1011.71 1011.88 1012.28 1012.58 1012.71 1013.08 1013.49 1013.85 1014.18 1014.82 1015.36 1015.68 1016.34 1017.07 1017.90 1018.65 1019.23 1019.70 1020.28 1020.92 1021.51 1022.25 1022.63
1013.82 1013.42 1013.14 1012.67 1012.11 1010.63 1008.96 1006.05 1004.58 1004.43 1004.88 1005.19 1005.95 1006.37 1006.56 1006.85 1007.19 1007.55 1008.03 1008.53 1009.08 1009.75 1010.32 1010.85 1011.10 1011.23 1011.47 1011.74 1012.13 1012.34 1012.34 1012.59 1012.97 1013.38 1013.74 1014.24 1014.84 1015.27 1016.09 1016.87 1017.69 1018.30 1018.88 1019.47 1020.02 1020.63 1021.38 1021.98 1022.36
1012.70 1012.15 1012.46 1012.00 1011.60 1011.32 1009.79 1006.05 1004.97 1004.95 1005.24 1005.79 1006.05 1006.46 1006.82 1007.23 1007.45 1007.70 1007.90 1008.30 1008.67 1009.05 1009.60 1010.17 1010.54 1010.79 1011.07 1011.31 1011.80 1012.00 1012.25 1012.38 1012.56 1012.92 1013.31 1013.87 1014.40 1014.97 1015.69 1016.54 1017.32 1017.96 1018.55 1019.22 1019.74 1020.21 1020.86 1021.47 1021.91
Wind_Speed
12 6 6 5 7 4 1 4 2 6 4 4 3 3 8 7 7 5 12 7 15 15 14 13 8 8 10 12 11 13 15 14 15 15 15 15 15 15 15 15 12 13 19 20 20 19 19 18 19
8 6 4 4 6 5 6 6 6 6 7 4 3 2 2 6 5 9 12 9 14 12 12 12 10 10 10 12 11 13 14 14 15 15 15 15 15 15 15 15 12 16 19 19 19 18 18 18 18
6 5 9 3 3 4 5 4 6 6 5 4 4 2 3 5 5 14 12 13 14 12 12 12 10 10 11 11 11 13 14 13 14 14 15 16 15 15 16 15 14 18 18 18 18 17 17 17 18
4 5 5 8 3 4 4 3 7 9 4 3 2 4 3 6 11 8 14 14 13 12 11 14 11 11 12 11 12 13 14 14 14 14 15 15 15 15 16 16 15 17 17 16 17 17 17 18 17
4 5 6 4 3 1 2 2 6 8 6 7 5 4 3 6 7 7 13 13 13 12 12 13 10 10 10 11 12 12 13 14 14 14 14 15 15 16 16 16 16 17 16 17 16 18 18 17 16
6 4 6 6 3 2 2 5 7 7 3 6 5 3 5 11 10 11 12 14 12 12 12 12 9 8 9 10 10 11 12 14 13 14 14 14 15 16 16 16 17 17 17 17 17 18 18 18 17
9 6 7 3 3 3 4 6 8 7 4 6 2 5 6 12 11 11 12 13 12 13 12 10 12 10 7 7 9 10 12 13 14 13 12 12 13 14 14 15 16 17 17 18 18 17 18 18 17
6 6 5 6 4 3 6 8 4 6 5 4 2 3 5 14 13 12 12 12 12 11 11 10 11 13 11 10 7 7 10 11 12 12 11 11 11 12 12 12 15 17 18 18 17 17 18 18 16
3 8 8 7 5 2 7 9 4 2 6 3 5 3 4 17 15 11 10 10 12 11 13 12 10 12 11 11 9 7 8 10 11 11 11 12 10 11 11 12 13 17 18 18 17 17 18 17 13
7 9 8 4 2 3 9 10 8 6 10 10 9 6 5 15 15 15 14 15 12 12 13 13 13 12 11 8 11 11 10 10 11 11 13 7 9 8 10 10 10 13 16 18 17 14 11 9 7
3 10 2 2 0 2 6 8 3 8 12 11 11 13 12 15 16 16 17 16 17 15 11 11 7 11 11 9 8 6 6 6 7 11 12 6 7 8 8 7 7 7 9 8 10 7 6 7 6
8 3 2 2 2 2 4 2 6 13 13 5 7 4 16 17 17 18 19 18 16 18 16 14 13 13 13 7 7 8 7 7 7 9 13 7 6 7 8 7 8 7 4 7 6 5 8 8 8
8 3 3 3 2 2 3 8 8 13 14 6 1 4 14 15 17 15 16 16 16 17 18 15 13 14 11 11 5 6 7 8 9 9 12 9 8 7 6 6 6 5 3 4 7 8 8 8 8
1 4 4 4 4 3 5 8 2 9 12 14 12 11 12 15 17 15 16 17 18 16 16 17 14 14 13 13 13 8 6 8 8 8 9 12 9 9 8 7 6 7 6 4 5 7 8 8 7
2 5 7 9 6 3 3 12 17 14 4 9 16 14 15 15 15 18 18 18 18 16 16 18 18 14 13 14 12 9 9 7 7 7 11 13 11 10 10 8 7 6 6 7 5 6 7 8 8
5 4 9 7 7 4 4 13 2 1 9 13 15 14 15 16 17 16 16 17 17 17 18 17 12 17 17 14 11 9 9 9 9 8 8 12 12 12 10 9 8 8 8 9 7 6 6 8 7
7 8 12 6 6 2 11 9 3 3 7 12 13 14 15 16 17 16 17 17 18 19 18 17 17 17 16 14 10 11 12 9 9 10 8 11 12 12 10 9 9 11 9 8 8 6 7 9 8
9 10 6 8 6 6 11 16 18 11 9 12 14 15 14 15 18 17 18 17 17 16 17 17 15 17 16 10 9 8 8 8 9 10 9 11 10 12 10 9 11 11 8 9 7 8 6 7 10
5 6 7 2 4 5 12 18 19 16 16 18 19 18 19 20 17 16 15 16 15 15 17 17 17 16 12 10 9 9 9 8 8 7 9 11 11 13 11 9 12 10 11 12 12 9 10 7 10
9 12 13 8 1 4 13 22 18 20 21 19 21 20 20 19 18 14 14 14 17 18 17 16 17 17 15 10 9 7 8 8 8 7 4 9 11 12 10 12 12 13 10 12 13 13 8 4 9
12 13 11 8 4 12 11 19 16 12 13 15 20 21 21 19 18 16 15 15 14 17 18 19 19 17 16 15 10 8 6 4 6 8 8 8 9 9 11 12 12 13 12 11 14 14 12 9 9
15 8 12 6 5 6 1 10 18 17 17 13 17 16 18 16 14 14 13 14 15 16 14 15 15 16 15 16 13 16 11 10 9 10 6 6 7 8 9 12 12 13 12 13 13 13 11 9 13
1 3 4 2 6 9 13 8 9 11 10 15 16 14 12 10 9 8 9 9 11 11 11 12 13 14 15 15 15 12 13 9 6 7 10 8 7 7 9 10 12 12 9 13 16 14 13 9 11
13 7 3 1 3 10 12 13 11 15 10 6 6 3 3 3 1 2 4 4 7 7 9 10 13 15 15 14 16 15 14 12 9 9 9 7 6 6 7 9 10 11 10 12 12 12 13 10 10
11 7 4 5 6 10 6 7 13 13 12 10 10 14 6 2 5 5 6 7 7 9 9 10 13 13 13 15 15 15 14 13 13 12 10 9 7 6 9 9 9 9 11 10 10 10 11 10 10
16 13 8 7 7 10 4 12 6 7 10 10 12 12 11 7 6 8 8 6 6 7 9 10 12 13 12 13 14 14 15 11 10 12 10 10 10 10 11 11 11 12 13 12 11 9 10 10 9
7 11 10 10 3 4 10 19 18 12 12 14 16 13 13 10 6 7 6 4 3 6 7 9 10 11 12 13 12 13 13 14 11 12 11 10 12 10 12 13 12 12 11 11 11 8 10 10 10
7 3 8 6 6 10 15 19 13 6 9 6 7 6 6 4 4 3 4 2 2 2 4 7 9 10 10 11 11 11 13 13 13 11 12 12 10 9 11 11 11 11 11 12 11 6 7 8 7
8 8 6 4 7 7 11 12 8 5 2 1 1 1 3 6 5 3 3 3 3 3 4 6 8 9 9 9 10 11 12 13 13 12 12 13 11 11 11 11 11 11 11 11 11 8 8 10 9
14 18 19 8 6 6 6 18 6 1 1 2 2 3 4 2 2 1 2 4 6 7 7 8 9 9 9 10 11 11 12 12 13 14 13 12 11 9 10 10 10 10 10 10 12 12 12 12 12
Wind_Direction
271 274 277 252 241 244 1 149 37 149 166 68 26 316 16 23 2 30 138 126 133 155 161 173 189 171 155 144 129 120 111 107 102 100 96 93 91 92 92 91 89 87 87 86 83 83 79 79 78
309 302 242 264 262 261 111 123 185 155 75 122 137 196 221 78 68 124 141 154 143 151 152 169 165 154 154 141 137 127 116 111 106 103 99 96 95 95 96 94 89 90 91 91 89 85 83 83 84
273 269 267 272 288 308 29 157 167 104 125 166 155 290 356 85 126 150 113 158 148 147 153 132 149 151 143 140 136 129 115 109 107 103 100 99 98 98 98 97 95 91 91 91 89 89 88 87 84
276 206 223 255 313 51 348 178 122 149 152 185 290 164 129 350 142 128 145 155 155 156 154 132 147 151 144 135 139 133 124 119 114 106 106 104 102 102 100 99 95 94 92 95 94 92 90 88 85
229 262 249 263 309 27 107 80 173 180 146 163 187 119 103 152 112 143 153 162 163 157 142 152 154 148 137 136 144 142 135 125 119 113 107 105 106 105 105 103 100 99 99 98 97 95 92 88 83
240 279 243 231 131 124 151 160 198 198 159 120 198 162 130 147 166 159 165 172 165 159 147 153 150 144 138 143 148 151 145 133 128 121 115 113 109 109 108 104 102 100 98 97 95 94 91 85 82
263 235 272 312 316 220 169 161 204 204 195 197 356 221 100 169 170 165 177 175 168 155 166 154 166 157 147 147 153 150 147 138 134 131 122 113 110 109 106 106 107 105 102 98 97 97 93 88 82
277 267 244 234 258 253 140 169 221 227 221 81 284 225 170 172 155 167 177 174 179 160 177 167 170 171 169 164 157 143 145 142 142 128 118 107 101 101 101 107 112 111 107 103 102 99 94 86 77
274 249 243 241 237 215 147 193 165 37 254 216 188 311 42 141 160 140 194 181 190 175 187 184 180 181 178 172 160 154 149 149 138 130 131 146 134 129 140 90 114 117 113 108 106 103 98 90 68
242 240 256 22 276 244 177 204 174 216 216 228 209 157 152 153 174 172 184 188 190 195 201 191 184 188 183 170 160 181 165 172 172 167 165 165 153 141 119 108 105 112 116 114 111 114 138 133 106
199 249 69 181 118 304 185 207 190 225 246 234 223 190 176 181 189 190 196 202 196 196 191 194 191 192 190 186 172 188 176 186 182 177 184 179 151 130 142 134 132 127 135 126 129 142 95 96 94
237 247 257 103 126 196 211 225 213 229 237 16 256 272 175 191 198 202 200 205 201 192 200 201 186 202 202 182 203 196 180 196 191 186 193 178 151 172 148 158 151 161 161 151 132 115 108 98 95
235 184 200 138 168 237 316 240 242 246 241 195 242 202 190 202 207 211 209 207 206 205 196 197 206 204 195 200 185 222 213 192 206 193 193 181 168 174 154 152 151 154 132 167 137 132 120 108 102
131 196 193 190 193 205 264 257 223 235 244 232 214 219 214 214 212 209 213 210 209 207 198 193 197 215 208 204 202 202 226 229 209 211 196 193 174 168 163 161 165 151 152 148 140 139 128 114 110
172 210 215 214 195 213 254 252 240 243 180 241 233 232 232 223 221 214 210 213 208 205 207 195 196 200 220 212 214 214 200 214 228 214 213 201 182 171 166 162 156 146 129 130 116 116 136 123 120
217 241 224 132 182 146 208 265 193 267 210 242 243 238 231 231 226 224 218 211 214 207 206 198 191 200 205 213 214 213 225 211 221 210 220 206 179 170 162 162 157 148 150 138 123 144 148 125 124
205 255 216 179 203 167 213 273 99 149 225 249 250 249 245 238 229 222 219 217 210 208 202 202 195 202 203 209 210 215 219 218 221 222 200 205 188 169 169 168 157 153 156 148 144 151 166 136 126
225 227 221 253 139 225 244 254 270 243 224 256 261 255 244 242 241 230 217 214 214 210 208 204 200 203 202 200 209 213 218 220 225 228 213 204 192 174 168 165 157 152 154 148 142 154 163 147 132
304 272 260 144 93 281 257 266 270 273 267 260 256 254 254 249 237 226 223 205 209 209 207 205 200 200 196 196 197 202 212 209 206 252 215 207 197 182 166 166 160 163 169 165 158 148 151 143 131
247 259 263 268 343 261 284 281 276 269 261 256 259 256 252 253 245 225 214 207 200 207 206 204 204 198 200 195 197 202 211 221 210 215 221 220 202 186 167 167 171 170 165 164 162 163 154 149 167
234 247 258 267 316 241 287 273 262 241 252 262 259 259 260 257 254 241 212 204 207 210 205 204 202 199 198 201 191 194 212 184 203 208 204 198 197 176 168 173 171 169 167 167 169 173 170 159 192
245 215 255 271 279 270 323 290 290 285 271 244 260 251 253 251 244 248 253 206 205 217 215 209 204 202 201 197 199 197 200 200 207 208 200 180 187 175 172 176 170 177 172 174 175 182 183 173 173
240 88 195 231 262 298 243 257 262 261 255 262 258 262 266 259 251 245 237 238 213 207 208 207 206 208 205 204 207 204 208 219 208 197 189 183 187 182 179 176 172 177 185 184 176 183 196 195 172
133 120 133 218 280 257 242 225 259 252 266 260 268 260 304 9 39 236 237 237 218 206 193 199 205 205 207 207 211 215 214 218 206 198 200 185 185 180 183 178 182 178 177 183 182 185 197 193 183
202 181 227 234 203 259 99 231 251 294 284 262 285 292 291 208 285 268 236 198 198 197 195 199 207 212 205 211 216 220 226 225 222 206 205 185 184 186 190 177 186 185 182 181 178 178 201 190 193
197 205 210 229 235 270 116 241 259 227 284 276 265 272 297 291 266 252 249 216 184 191 198 198 204 211 207 211 216 217 223 225 221 215 203 200 197 193 178 185 191 197 193 178 186 183 194 207 188
169 215 254 278 74 284 250 262 264 203 226 263 271 285 283 283 299 259 252 222 192 186 200 207 206 212 208 210 217 218 221 222 225 215 216 210 202 193 187 186 194 193 191 184 179 182 189 198 190
247 229 191 219 216 235 255 262 260 265 271 230 270 290 323 343 345 293 201 164 157 207 198 213 211 214 218 215 217 222 220 219 223 214 209 215 206 181 184 184 190 187 188 183 173 172 185 182 187
181 213 227 245 243 244 261 260 280 260 344 240 160 351 9 351 6 53 78 116 152 174 198 221 221 221 221 220 219 224 222 218 218 219 212 209 200 181 180 184 190 186 182 182 177 161 173 183 170
245 229 211 212 197 244 286 269 131 10 353 47 309 313 320 313 18 140 177 195 193 197 200 214 218 219 220 217 220 225 225 220 218 218 212 206 203 185 185 183 185 185 182 179 182 170 175 177 171